"2016-06-23 00:00:00",1746651,6.252,258.2,1.163,0.164,24.91,109.919,24.69,25.68,24.32,0,111.1,13.06,25.52,220.2
"2016-06-23 00:00:30",1746652,6.349,254.8,1.849,0.056,24.89,109.919,24.69,25.67,24.38,0,111.1,13.06,25.52,216.8
"2016-06-23 00:01:00",1746653,6.673,253.3,1.256,0.223,24.97,109.919,24.69,25.67,24.45,0,111.1,13.06,25.52,215.3
"2016-06-23 00:01:30",1746654,6.801,251.4,1.582,0.185,24.91,109.919,24.69,25.68,24.41,0,111.1,13.06,25.52,213.4
"2016-06-23 00:02:00",1746655,7.053,249.5,1.18,0.174,24.94,109.919,24.69,25.67,24.52,0,111.1,13.07,25.52,211.5
"2016-06-23 00:02:30",1746656,7.574,246.8,1.166,0.105,24.89,109.919,24.69,25.65,24.69,0,111.1,13.06,25.52,208.8
"2016-06-23 00:03:00",1746657,7.642,245.3,0.878,0.085,24.88,109.9145,24.67,25.64,24.77,0,111.1,13.06,25.51,207.3
"2016-06-23 00:03:30",1746658,7.865,247.7,0.611,0.092,24.96,109.8962,24.63,25.63,24.83,0,111.1,13.06,25.47,209.7
"2016-06-23 00:04:00",1746659,7.877,246.4,0.744,0.104,25.11,109.8889,24.61,25.63,24.87,0,111.1,13.06,25.45,208.4
"2016-06-23 00:04:30",1746660,7.709,245.2,0.677,0.073,25.25,109.8853,24.6,25.62,24.94,0,111.1,13.06,25.44,207.2
"2016-06-23 00:05:00",1746661,7.469,245.4,0.396,0.074,25.06,109.8853,24.6,25.62,24.88,0,111.1,13.06,25.44,207.4
"2016-06-23 00:05:30",1746662,7.458,246.5,0.685,0.065,24.94,109.8853,24.6,25.6,24.95,0,111.1,13.06,25.44,208.5
"2016-06-23 00:06:00",1746663,7.404,246.2,0.728,0.126,25.02,109.8853,24.6,25.6,24.87,0,111.1,13.06,25.44,208.2
"2016-06-23 00:06:30",1746664,7.171,246.8,0.993,0.113,25.14,109.8853,24.6,25.6,24.89,0,111.1,13.06,25.44,208.8
"2016-06-23 00:07:00",1746665,7.064,247.5,0.849,0.055,25.25,109.8853,24.6,25.58,24.71,0,111.1,13.05,25.44,209.5
"2016-06-23 00:07:30",1746666,7.068,249,0.767,0.089,25.19,109.8853,24.6,25.6,24.61,0,111.1,13.06,25.44,211.0
"2016-06-23 00:08:00",1746667,6.992,249.3,1.282,0.088,25.2,109.8853,24.6,25.58,24.64,0,111.1,13.06,25.44,211.3
"2016-06-23 00:08:30",1746668,7.233,248.7,2.733,0.106,25.11,109.8853,24.6,25.58,24.62,0,111.1,13.06,25.44,210.7
"2016-06-23 00:09:00",1746669,7.358,243.6,1.713,0.216,25.06,109.8853,24.6,25.6,24.67,0,111.1,13.05,25.44,205.6
"2016-06-23 00:09:30",1746670,7.227,241.5,1.147,0.178,24.95,109.8853,24.6,25.58,24.72,0,111.2,13.06,25.44,203.5
"2016-06-23 00:10:00",1746671,6.887,240.2,0.766,0.192,25.01,109.8853,24.6,25.59,24.88,0,111.1,13.06,25.44,202.2
"2016-06-23 00:10:30",1746672,6.427,239.1,1.386,0.131,25.03,109.8853,24.6,25.59,24.81,0,111.2,13.06,25.44,201.1
"2016-06-23 00:11:00",1746673,6.729,239.6,1.222,0.193,25.06,109.8853,24.6,25.59,24.7,0,111.2,13.06,25.44,201.6
"2016-06-23 00:11:30",1746674,6.746,239.1,0.871,0.131,25.06,109.8856,24.6,25.59,24.73,0,111.1,13.06,25.44,201.1
"2016-06-23 00:12:00",1746675,6.957,240.8,1.221,0.14,25.07,109.8861,24.6,25.59,24.58,0,111.2,13.06,25.44,202.8
"2016-06-23 00:12:30",1746676,6.92,242.2,1.475,0.117,25.03,109.8856,24.6,25.6,24.61,0,111.2,13.06,25.44,204.2
"2016-06-23 00:13:00",1746677,6.92,245.4,1.028,0.13,24.96,109.8856,24.6,25.6,24.62,0,111.2,13.06,25.44,207.4
"2016-06-23 00:13:30",1746678,6.827,246.8,1.2,0.145,24.94,109.8856,24.6,25.58,24.59,0,111.2,13.06,25.44,208.8
"2016-06-23 00:14:00",1746679,6.376,246.2,0.964,0.234,24.9,109.8853,24.6,25.59,24.57,0,111.2,13.06,25.44,208.2
"2016-06-23 00:14:30",1746680,6.094,247.1,1.4,0.235,24.65,109.8853,24.6,25.58,24.59,0,111.2,13.06,25.44,209.1
"2016-06-23 00:15:00",1746681,6.108,248.3,5.862,0.311,24.45,109.8853,24.6,25.57,24.58,0,111.2,13.06,25.44,210.3
"2016-06-23 00:15:30",1746682,6.178,241.8,0.9,0.075,24.92,109.8853,24.6,25.58,24.62,0,111.2,13.06,25.44,203.8
"2016-06-23 00:16:00",1746683,5.785,242.7,0.854,0.148,24.94,109.8853,24.6,25.58,24.66,0,111.2,13.06,25.44,204.7
"2016-06-23 00:16:30",1746684,5.671,240.8,0.983,0.107,24.9,109.8853,24.6,25.56,24.66,0,111.1,13.07,25.44,202.8
"2016-06-23 00:17:00",1746685,5.913,243.6,1.954,0.164,24.75,109.8825,24.59,25.57,24.67,0,111.1,13.06,25.43,205.6
"2016-06-23 00:17:30",1746686,5.963,247.1,1.504,0.174,24.73,109.8698,24.56,25.55,24.56,0,111.1,13.07,25.40,209.1
"2016-06-23 00:18:00",1746687,6.19,247.1,2.446,0.201,24.62,109.8563,24.53,25.54,24.52,0,111.2,13.06,25.36,209.1
"2016-06-23 00:18:30",1746688,6.148,249.3,1.708,0.079,24.66,109.8516,24.51,25.53,24.46,0,111.1,13.06,25.35,211.3
"2016-06-23 00:19:00",1746689,6.073,242.3,3.615,0.154,24.85,109.8516,24.51,25.52,24.62,0,111.2,13.06,25.35,204.3
"2016-06-23 00:19:30",1746690,6.348,239,0.727,0.104,25.02,109.8509,24.51,25.5,24.93,0,111.2,13.06,25.35,201.0
"2016-06-23 00:20:00",1746691,6.606,239.2,0.503,0.171,24.99,109.8516,24.51,25.49,24.89,0,111.2,13.06,25.35,201.2
"2016-06-23 00:20:30",1746692,6.829,238.7,0.611,0.1,24.96,109.8501,24.51,25.48,24.85,0,111.2,13.06,25.35,200.7
"2016-06-23 00:21:00",1746693,6.602,238.6,0.769,0.076,24.93,109.8417,24.49,25.47,24.86,0,111.2,13.06,25.33,200.6
"2016-06-23 00:21:30",1746694,6.404,237.6,1.294,0.129,24.95,109.8271,24.45,25.47,24.85,0,111.2,13.06,25.29,199.6
"2016-06-23 00:22:00",1746695,6.275,237,0.765,0.062,24.91,109.8232,24.44,25.47,24.86,0,111.1,13.06,25.28,199.0
"2016-06-23 00:22:30",1746696,6.348,239.7,1.871,0.081,24.87,109.8184,24.43,25.44,24.77,0,111.2,13.06,25.27,201.7
"2016-06-23 00:23:00",1746697,6.402,243.8,2.024,0.169,24.92,109.8178,24.43,25.44,24.76,0,111.2,13.06,25.26,205.8
"2016-06-23 00:23:30",1746698,6.421,245.6,1.33,0.141,24.81,109.8175,24.43,25.43,24.76,0,111.2,13.06,25.26,207.6
"2016-06-23 00:24:00",1746699,6.751,244.6,1.767,0.13,24.7,109.8178,24.43,25.42,24.75,0,111.2,13.05,25.26,206.6
"2016-06-23 00:24:30",1746700,7.177,243.9,1.972,0.183,24.43,109.8178,24.43,25.43,24.74,0,111.1,13.06,25.26,205.9
"2016-06-23 00:25:00",1746701,8.46,235.3,1.505,0.475,23.49,109.8175,24.43,25.42,25.93,0,111.2,13.06,25.26,197.3
"2016-06-23 00:25:30",1746702,8.78,233.3,0.85,0.123,23.53,109.8004,24.38,25.39,26.83,0,111.1,13.06,25.22,195.3
"2016-06-23 00:26:00",1746703,7.835,235.7,2.97,0.302,24.46,109.7841,24.34,25.37,25.65,0,111.1,13.06,25.18,197.7
"2016-06-23 00:26:30",1746704,8.26,236.2,1.908,0.318,24.12,109.7731,24.31,25.34,25.24,0,111.2,13.06,25.15,198.2
"2016-06-23 00:27:00",1746705,9.45,235.6,1.721,0.165,23.67,109.7512,24.26,25.33,26.58,0,111.2,13.06,25.09,197.6
"2016-06-23 00:27:30",1746706,9.54,237.6,0.636,0.096,23.78,109.7433,24.24,25.29,26.84,0,111.2,13.06,25.07,199.6
"2016-06-23 00:28:00",1746707,9.74,237.5,0.623,0.281,23.84,109.7169,24.17,25.23,27.02,0,111.2,13.06,25.00,199.5
"2016-06-23 00:28:30",1746708,10.28,238.1,0.633,0.127,23.62,109.6992,24.12,25.2,28,0,111.2,13.06,24.96,200.1
"2016-06-23 00:29:00",1746709,10.36,239.7,1.135,0.355,23.98,109.6772,24.07,25.17,27.68,0,111.2,13.06,24.90,201.7
"2016-06-23 00:29:30",1746710,11.11,238.9,1.427,0.308,23.65,109.6488,23.99,25.1,28.69,0,111.2,13.06,24.83,200.9
"2016-06-23 00:30:00",1746711,10.61,239.1,1.786,0.264,23.72,109.6207,23.92,25.05,28.79,0,111.2,13.06,24.76,201.1
"2016-06-23 00:30:30",1746712,10.78,240.6,1.462,0.204,23.47,109.5909,23.84,25,29.91,0,111.1,13.06,24.68,202.6
"2016-06-23 00:31:00",1746713,10.55,241.8,3.341,0.511,23.58,109.5622,23.77,24.93,29.62,0,111.2,13.06,24.60,203.8
"2016-06-23 00:31:30",1746714,9.69,249.2,4.478,0.624,24.22,109.5282,23.68,24.86,29.05,0,111.2,13.06,24.52,211.2
"2016-06-23 00:32:00",1746715,8.8,253.8,2.328,0.375,24.72,109.4979,23.6,24.8,26.75,0,111.1,13.07,24.44,215.8
"2016-06-23 00:32:30",1746716,9.49,249.9,1.849,0.151,23.89,109.474,23.54,24.73,27.84,0,111.2,13.07,24.38,211.9
"2016-06-23 00:33:00",1746717,9.23,253.5,1.821,0.185,24.09,109.4464,23.47,24.67,28,0,111.1,13.06,24.31,215.5
"2016-06-23 00:33:30",1746718,9.05,255.4,0.595,0.182,23.89,109.4222,23.41,24.61,28.04,0,111.1,13.06,24.24,217.4
"2016-06-23 00:34:00",1746719,8.99,254.8,2.349,0.287,23.62,109.4011,23.36,24.55,29,0,111.1,13.07,24.19,216.8
"2016-06-23 00:34:30",1746720,8.29,257.5,2.751,0.131,23.48,109.3792,23.3,24.49,30.47,0,111.1,13.07,24.13,219.5
"2016-06-23 00:35:00",1746721,7.653,259.5,2.501,0.404,23.35,109.3348,23.19,24.41,32.12,0,111.1,13.07,24.02,221.5
"2016-06-23 00:35:30",1746722,6.263,270.9,5.99,0.275,23.24,109.2173,22.88,24.22,33.18,0,111.1,13.07,23.72,232.9
"2016-06-23 00:36:00",1746723,5.315,277.7,3.301,0.273,23.16,109.1104,22.61,23.98,34.15,0,111.1,13.07,23.44,239.7
"2016-06-23 00:36:30",1746724,5.294,280.5,4.094,0.355,23.17,109.0556,22.47,23.81,34.8,0,111.1,13.07,23.30,242.5
"2016-06-23 00:37:00",1746725,4.218,291,4.463,0.456,23.16,109.0418,22.43,23.71,35.18,0,111.1,13.07,23.26,253.0
"2016-06-23 00:37:30",1746726,5.013,288.8,12.31,0.869,23.03,109.0418,22.43,23.66,35.45,0,111.1,13.07,23.26,250.8
"2016-06-23 00:38:00",1746727,4.166,302.9,6.945,0.873,22.9,109.0415,22.43,23.63,35.8,0,111.1,13.07,23.26,264.9
"2016-06-23 00:38:30",1746728,4.763,298.2,7.422,0.578,23.04,109.0286,22.4,23.59,35.96,0,111.1,13.07,23.23,260.2
"2016-06-23 00:39:00",1746729,4.293,298.6,5.32,0.448,23.19,109.0084,22.35,23.57,35.9,0,111.1,13.07,23.18,260.6
"2016-06-23 00:39:30",1746730,4.288,295.5,9.95,0.54,23.22,109.0064,22.34,23.52,35.7,0,111.1,13.06,23.17,257.5
"2016-06-23 00:40:00",1746731,5.18,299,15.9,0.649,23.39,108.9808,22.28,23.5,35.39,0,111.1,13.06,23.11,261.0
"2016-06-23 00:40:30",1746732,4.046,287.5,3.174,0.737,23.46,108.9687,22.25,23.45,34.96,0,111.1,13.06,23.08,249.5
"2016-06-23 00:41:00",1746733,3.719,267.7,9.3,0.7,23.37,108.9417,22.18,23.42,35.18,0,111.1,13.06,23.01,229.7
"2016-06-23 00:41:30",1746734,4.668,271.2,13.77,0.554,23.11,108.9297,22.15,23.38,35.95,0,111.1,13.06,22.97,233.2
"2016-06-23 00:42:00",1746735,4.198,276.4,9.43,0.947,23.15,108.9069,22.09,23.34,36.14,0,111.1,13.06,22.92,238.4
"2016-06-23 00:42:30",1746736,1.174,272.4,22.73,0.63,23.14,108.9027,22.08,23.29,36.19,0,111.1,13.06,22.91,234.4
"2016-06-23 00:43:00",1746737,4.271,239.9,1.659,0.405,23.65,108.8751,22.01,23.24,35.82,0,111.1,13.06,22.83,201.9
"2016-06-23 00:43:30",1746738,4.814,248.2,8.93,0.322,23.92,108.8731,22,23.2,34.15,0,111.1,13.06,22.83,210.2
"2016-06-23 00:44:00",1746739,4.919,234.5,1.532,0.141,23.62,108.8566,21.96,23.15,35.6,0,111.1,13.06,22.79,196.5
"2016-06-23 00:44:30",1746740,5.392,236.1,3.451,0.585,23.61,108.8394,21.91,23.12,35.84,0,111.1,13.07,22.74,198.1
"2016-06-23 00:45:00",1746741,6.061,244.4,4.922,0.339,23.86,108.8394,21.91,23.09,34.87,0,111.1,13.07,22.74,206.4
"2016-06-23 00:45:30",1746742,5.53,247.4,3.662,0.303,23.92,108.8391,21.91,23.07,34.07,0,111.1,13.07,22.74,209.4
"2016-06-23 00:46:00",1746743,5.527,247.7,2.312,0.253,23.88,108.8343,21.9,23.03,33.96,0,111.1,13.07,22.73,209.7
"2016-06-23 00:46:30",1746744,5.8,250,4.688,0.271,23.87,108.8223,21.87,23.02,34.18,0,111.1,13.07,22.70,212.0
"2016-06-23 00:47:00",1746745,5.816,252.7,3.261,0.17,23.81,108.8161,21.85,23,34.35,0,111.1,13.07,22.68,214.7
"2016-06-23 00:47:30",1746746,5.822,257.3,3.691,0.203,23.74,108.8119,21.84,22.99,34.7,0,111.1,13.07,22.67,219.3
"2016-06-23 00:48:00",1746747,5.383,264.4,5.087,0.288,23.64,108.8102,21.84,22.96,35.2,0,111.1,13.07,22.67,226.4
"2016-06-23 00:48:30",1746748,4.721,275.3,3.627,0.24,23.47,108.8093,21.84,22.96,36.07,0,111.1,13.07,22.66,237.3
"2016-06-23 00:49:00",1746749,4.333,282.5,3.844,0.269,23.56,108.8068,21.83,22.93,35.96,0,111.1,13.07,22.66,244.5
"2016-06-23 00:49:30",1746750,3.892,282.5,4.781,0.42,23.31,108.8068,21.83,22.93,36.34,0,111.1,13.07,22.66,244.5
"2016-06-23 00:50:00",1746751,3.901,287.5,6.918,0.67,23.5,108.8063,21.83,22.93,36.23,0,111.1,13.07,22.66,249.5
"2016-06-23 00:50:30",1746752,4.393,285.2,8.96,0.564,23.79,108.8072,21.83,22.91,34.71,0,111.1,13.07,22.66,247.2
"2016-06-23 00:51:00",1746753,3.917,296.5,7.005,0.369,23.73,108.8072,21.83,22.91,34.43,0,111.1,13.07,22.66,258.5
"2016-06-23 00:51:30",1746754,3.632,290,11.14,0.534,23.48,108.808,21.83,22.92,35.11,0,111.1,13.07,22.66,252.0
"2016-06-23 00:52:00",1746755,3.322,308.8,4.619,0.402,23.06,108.8075,21.83,22.88,36.95,0,111.1,13.07,22.66,270.8
"2016-06-23 00:52:30",1746756,3.48,313.7,2.395,0.246,23.19,108.8081,21.83,22.87,36.8,0,111.1,13.07,22.66,275.7
"2016-06-23 00:53:00",1746757,3.356,312.9,3.48,0.389,23.24,108.8093,21.84,22.85,36.87,0,111.1,13.08,22.66,274.9
"2016-06-23 00:53:30",1746758,4.063,313.8,3.392,0.287,23.52,108.8069,21.83,22.87,36.12,0,111.1,13.08,22.66,275.8
"2016-06-23 00:54:00",1746759,3.758,313.1,1.794,0.188,23.44,108.8124,21.84,22.86,36.07,0,111.1,13.07,22.67,275.1
"2016-06-23 00:54:30",1746760,3.254,309.8,3.635,0.314,23.35,108.8137,21.85,22.85,36.23,0,111.1,13.07,22.68,271.8
"2016-06-23 00:55:00",1746761,3.112,316.8,4.289,0.33,23.43,108.815,21.85,22.85,36.17,0,111.1,13.07,22.68,278.8
"2016-06-23 00:55:30",1746762,3.189,327.7,2.411,0.211,23.53,108.8094,21.84,22.88,35.22,0,111.1,13.07,22.66,289.7
"2016-06-23 00:56:00",1746763,3.086,321.4,4.315,0.231,23.61,108.8026,21.82,22.85,35.06,0,111,13.07,22.65,283.4
"2016-06-23 00:56:30",1746764,2.767,312.2,2.345,0.259,23.59,108.7985,21.81,22.83,34.53,0,111.1,13.07,22.64,274.2
"2016-06-23 00:57:00",1746765,2.774,311.5,4.599,0.163,23.43,108.7934,21.8,22.85,34.83,0,111.1,13.07,22.62,273.5
"2016-06-23 00:57:30",1746766,2.943,302.6,5.545,0.306,23.53,108.7887,21.78,22.84,35.13,0,111,13.07,22.61,264.6
"2016-06-23 00:58:00",1746767,2.684,297.9,7.065,0.398,23.61,108.7902,21.79,22.84,34.97,0,111,13.07,22.62,259.9
"2016-06-23 00:58:30",1746768,3.054,295.7,5.771,0.557,23.64,108.7893,21.79,22.84,34.87,0,111,13.07,22.61,257.7
"2016-06-23 00:59:00",1746769,3.079,299.7,3.948,0.443,23.51,108.7884,21.78,22.83,35.03,0,111.1,13.07,22.61,261.7
"2016-06-23 00:59:30",1746770,3.707,299,8.61,0.472,23.54,108.7887,21.78,22.83,35.07,0,111,13.07,22.61,261.0
"2016-06-23 01:00:00",1746771,7.59,293.5,5.208,0.651,24.16,108.7915,21.79,22.82,34.27,0,111,13.07,22.62,255.5
"2016-06-23 01:00:30",1746772,6.866,293.9,3.595,0.773,24.13,108.7952,21.8,22.82,33.71,0,111,13.07,22.63,255.9
"2016-06-23 01:01:00",1746773,5.78,296.4,4.787,0.471,23.89,108.797,21.8,22.84,33.78,0,111,13.07,22.63,258.4
"2016-06-23 01:01:30",1746774,5.49,285.2,3.33,0.266,23.86,108.808,21.83,22.83,34.19,0,111,13.07,22.66,247.2
"2016-06-23 01:02:00",1746775,6.092,284.9,1.68,0.204,23.84,108.818,21.86,22.83,34.12,0,111,13.07,22.69,246.9
"2016-06-23 01:02:30",1746776,6.145,287.3,4.735,0.487,23.84,108.8331,21.9,22.85,34.2,0,111,13.07,22.73,249.3
"2016-06-23 01:03:00",1746777,5.569,274,4.173,0.438,23.53,108.8387,21.91,22.85,34.76,0,111,13.07,22.74,236.0
"2016-06-23 01:03:30",1746778,7.464,274.8,2.997,1.719,23.91,108.8406,21.92,22.85,34.99,0,111,13.08,22.75,236.8
"2016-06-23 01:04:00",1746779,9.27,271.9,1.938,0.331,24.79,108.8409,21.92,22.87,33.04,0,111,13.08,22.75,233.9
"2016-06-23 01:04:30",1746780,8.99,271.4,1.765,0.204,24.74,108.8626,21.97,22.89,33.01,0,111,13.08,22.80,233.4
"2016-06-23 01:05:00",1746781,9.27,268.8,1.277,0.35,24.64,108.8784,22.01,22.9,33.19,0,111,13.07,22.84,230.8
"2016-06-23 01:05:30",1746782,9.07,271.1,1.804,0.444,24.67,108.9082,22.09,22.92,33.09,0,111,13.07,22.92,233.1
"2016-06-23 01:06:00",1746783,8.47,266.9,1.149,0.239,24.89,108.9349,22.16,22.97,32.23,0,111,13.08,22.99,228.9
"2016-06-23 01:06:30",1746784,8.21,265.6,2.314,0.199,24.89,108.9526,22.2,23.01,32.54,0,111,13.08,23.03,227.6
"2016-06-23 01:07:00",1746785,7.6,263.1,1.174,0.1,24.85,108.9777,22.27,23.05,32.58,0,111,13.08,23.10,225.1
"2016-06-23 01:07:30",1746786,7.239,262.9,2.395,0.205,24.73,109.0033,22.33,23.09,32.76,0,111,13.08,23.16,224.9
"2016-06-23 01:08:00",1746787,6.957,267.1,1.426,0.235,24.8,109.0201,22.38,23.15,32.12,0,111,13.08,23.21,229.1
"2016-06-23 01:08:30",1746788,6.882,269.8,1.174,0.213,24.7,109.0449,22.44,23.18,32.41,0,111,13.08,23.27,231.8
"2016-06-23 01:09:00",1746789,7.374,270.4,1.358,0.261,24.54,109.0722,22.51,23.25,32.93,0,111,13.08,23.34,232.4
"2016-06-23 01:09:30",1746790,8.06,271.1,0.849,0.198,24.39,109.084,22.54,23.3,33.01,0,111,13.08,23.37,233.1
"2016-06-23 01:10:00",1746791,8.93,270.9,1.007,0.322,24.32,109.1115,22.61,23.34,33.35,0,111,13.08,23.44,232.9
"2016-06-23 01:10:30",1746792,8.97,273.4,1.815,0.208,24.18,109.1304,22.66,23.4,33.24,0,111,13.08,23.49,235.4
"2016-06-23 01:11:00",1746793,8.44,272.7,0.891,0.254,24.2,109.1461,22.7,23.46,33.01,0,111,13.08,23.53,234.7
"2016-06-23 01:11:30",1746794,8.24,272.4,0.889,0.172,24.26,109.1667,22.75,23.49,32.97,0,111,13.08,23.59,234.4
"2016-06-23 01:12:00",1746795,8.24,273.4,0.722,0.093,24.23,109.1799,22.79,23.53,33,0,111,13.08,23.62,235.4
"2016-06-23 01:12:30",1746796,8.23,272.6,0.971,0.129,24.2,109.1886,22.81,23.58,32.91,0,111,13.08,23.64,234.6
"2016-06-23 01:13:00",1746797,8.09,275.9,1.405,0.151,24.18,109.2069,22.86,23.63,33.16,0,111,13.08,23.69,237.9
"2016-06-23 01:13:30",1746798,7.737,279.4,0.645,0.161,24.13,109.2136,22.87,23.65,32.97,0,111,13.08,23.71,241.4
"2016-06-23 01:14:00",1746799,7.958,282.2,1.043,0.181,24.2,109.2136,22.87,23.68,33.19,0,111,13.07,23.71,244.2
"2016-06-23 01:14:30",1746800,8.29,284.3,1.395,0.265,24.28,109.2136,22.87,23.7,33.47,0,111,13.07,23.71,246.3
"2016-06-23 01:15:00",1746801,8.97,288,0.865,0.274,24.26,109.2136,22.87,23.73,33.69,0,111,13.07,23.71,250.0
"2016-06-23 01:15:30",1746802,10.41,290,1.887,0.542,24.66,109.2136,22.87,23.75,30.81,0,111,13.07,23.71,252.0
"2016-06-23 01:16:00",1746803,11.55,291,2.858,0.676,24.53,109.2184,22.89,23.76,29.22,0,111,13.07,23.72,253.0
"2016-06-23 01:16:30",1746804,11.2,293.2,1.231,0.363,24.44,109.2395,22.94,23.77,28.95,0,111,13.07,23.77,255.2
"2016-06-23 01:17:00",1746805,9.83,294.7,1.761,0.405,24.32,109.2474,22.96,23.79,29.41,0,111,13.07,23.79,256.7
"2016-06-23 01:17:30",1746806,9.29,295.6,3.107,0.622,23.67,109.2474,22.96,23.81,31.49,0,111,13.07,23.79,257.6
"2016-06-23 01:18:00",1746807,9.15,296.1,4.455,0.286,24.44,109.2474,22.96,23.84,29.65,0,111,13.07,23.79,258.1
"2016-06-23 01:18:30",1746808,9.83,293.9,2.134,0.438,24.14,109.2491,22.97,23.84,30.09,0,111,13.07,23.80,255.9
"2016-06-23 01:19:00",1746809,10.74,289.6,0.988,0.259,24.04,109.253,22.98,23.86,30.68,0,111,13.07,23.81,251.6
"2016-06-23 01:19:30",1746810,10.84,295.8,2.233,0.208,23.98,109.2558,22.98,23.87,30.25,0,111,13.07,23.82,257.8
"2016-06-23 01:20:00",1746811,10.41,292.8,1.362,0.336,24.03,109.2555,22.98,23.89,30.43,0,111,13.07,23.81,254.8
"2016-06-23 01:20:30",1746812,10.93,291.9,2.144,0.323,24.13,109.255,22.98,23.89,30.37,0,111,13.07,23.81,253.9
"2016-06-23 01:21:00",1746813,10.7,294.2,2.199,0.566,23.88,109.2533,22.98,23.9,30.54,0,111.1,13.07,23.81,256.2
"2016-06-23 01:21:30",1746814,12.52,293.9,3.015,0.906,23.78,109.2485,22.96,23.9,30.98,0,111.1,13.07,23.80,255.9
"2016-06-23 01:22:00",1746815,13.87,294.4,3.866,0.808,23.88,109.2474,22.96,23.91,30.01,0,111,13.07,23.79,256.4
"2016-06-23 01:22:30",1746816,14.26,296.8,3.425,0.606,23.75,109.2474,22.96,23.91,30.3,0,111,13.07,23.79,258.8
"2016-06-23 01:23:00",1746817,11.88,293.7,7.164,1.015,23.59,109.2353,22.93,23.9,31.37,0,111,13.07,23.76,255.7
"2016-06-23 01:23:30",1746818,14.49,295.4,3.126,0.848,23.9,109.2142,22.88,23.86,30.33,0,111.1,13.07,23.71,257.4
"2016-06-23 01:24:00",1746819,14.3,293,2.803,0.845,23.83,109.2136,22.87,23.86,30.38,0,111,13.07,23.71,255.0
"2016-06-23 01:24:30",1746820,14.86,291.8,3.38,0.634,23.68,109.2018,22.84,23.83,30.32,0,111,13.07,23.68,253.8
"2016-06-23 01:25:00",1746821,14.14,288.5,4.84,0.664,23.64,109.1799,22.79,23.81,30.49,0,111.1,13.07,23.62,250.5
"2016-06-23 01:25:30",1746822,13.07,295.1,4.496,0.95,23.45,109.1751,22.78,23.8,31.04,0,111.1,13.07,23.61,257.1
"2016-06-23 01:26:00",1746823,15.38,295.5,4.149,1.053,23.34,109.1473,22.7,23.76,31.73,0,111,13.07,23.54,257.5
"2016-06-23 01:26:30",1746824,12.54,295.6,7.711,0.772,23.38,109.134,22.67,23.73,32.17,0,111.1,13.08,23.50,257.6
"2016-06-23 01:27:00",1746825,12.67,299.8,4.894,0.781,23.37,109.1124,22.61,23.71,32.11,0,111,13.08,23.45,261.8
"2016-06-23 01:27:30",1746826,13.08,306.5,2.948,0.688,23.42,109.0913,22.56,23.63,32.24,0,111,13.07,23.39,268.5
"2016-06-23 01:28:00",1746827,13.44,312.1,3.211,0.854,23.39,109.0784,22.53,23.61,32.72,0,111,13.07,23.36,274.1
"2016-06-23 01:28:30",1746828,11.82,314.2,3.161,1.141,23.39,109.0511,22.46,23.56,33.02,0,111,13.08,23.29,276.2
"2016-06-23 01:29:00",1746829,9.72,319.9,3.254,0.588,23.37,109.0384,22.42,23.53,33.26,0,111,13.08,23.25,281.9
"2016-06-23 01:29:30",1746830,9.86,316.1,3.231,0.326,23.5,109.0114,22.36,23.49,33.21,0,111,13.08,23.19,278.1
"2016-06-23 01:30:00",1746831,10.46,317.6,3.101,0.609,23.46,108.9996,22.33,23.45,33.56,0,111,13.08,23.15,279.6
"2016-06-23 01:30:30",1746832,10.94,317.9,3.023,0.708,23.89,108.9777,22.27,23.4,33.04,0,111,13.08,23.10,279.9
"2016-06-23 01:31:00",1746833,9.3,315.8,2.777,0.902,23.35,108.9709,22.25,23.36,33.84,0,111,13.07,23.08,277.8
"2016-06-23 01:31:30",1746834,11.55,319.2,3.978,0.378,23.73,108.9462,22.19,23.32,33.71,0,111,13.07,23.02,281.2
"2016-06-23 01:32:00",1746835,12.18,320.2,2.125,0.453,23.76,108.9436,22.18,23.29,33.85,0,111,13.07,23.01,282.2
"2016-06-23 01:32:30",1746836,13.94,313.4,3.029,0.807,23.86,108.9369,22.16,23.26,33.07,0,111,13.07,22.99,275.4
"2016-06-23 01:33:00",1746837,13.38,318,2.777,0.997,23.85,108.913,22.1,23.23,33.06,0,111,13.07,22.93,280.0
"2016-06-23 01:33:30",1746838,12.05,320.5,3.104,0.434,23.67,108.9099,22.09,23.19,33.65,0,111,13.07,22.92,282.5
"2016-06-23 01:34:00",1746839,11.57,318.9,4.213,0.795,23.44,108.9099,22.09,23.18,34.23,0,111,13.07,22.92,280.9
"2016-06-23 01:34:30",1746840,13.98,314.3,1.499,0.829,23.77,108.9068,22.09,23.15,33.27,0,111,13.07,22.92,276.3
"2016-06-23 01:35:00",1746841,13.49,316.6,2.134,0.448,23.91,108.8924,22.05,23.13,32.59,0,111,13.07,22.88,278.6
"2016-06-23 01:35:30",1746842,12.79,324.2,1.881,0.438,23.56,108.8784,22.01,23.1,32.89,0,111,13.07,22.84,286.2
"2016-06-23 01:36:00",1746843,12.21,324.6,2.32,0.477,23.63,108.8761,22.01,23.09,33.28,0,111,13.07,22.84,286.6
"2016-06-23 01:36:30",1746844,11.53,325.4,1.776,0.5,24.08,108.8761,22.01,23.07,33.01,0,111,13.07,22.84,287.4
"2016-06-23 01:37:00",1746845,12.26,318.9,3.334,0.442,24.22,108.8761,22.01,23.06,32.66,0,111,13.08,22.84,280.9
"2016-06-23 01:37:30",1746846,10.24,317.1,2.793,0.525,24.16,108.8761,22.01,23.05,32.48,0,111,13.08,22.84,279.1
"2016-06-23 01:38:00",1746847,10.36,323.3,2.58,0.746,24.13,108.8784,22.01,23.05,32.44,0,111,13.08,22.84,285.3
"2016-06-23 01:38:30",1746848,10.01,327.5,2.742,0.318,24.17,108.8947,22.06,23.05,32.44,0,111,13.08,22.88,289.5
"2016-06-23 01:39:00",1746849,10.32,325.8,2.935,0.349,24.16,108.909,22.09,23.04,32.34,0,111,13.08,22.92,287.8
"2016-06-23 01:39:30",1746850,9.76,326.8,5.176,0.689,24.14,108.9099,22.09,23.08,32.03,0,111,13.08,22.92,288.8
"2016-06-23 01:40:00",1746851,8.67,321.6,6.211,0.926,23.6,108.9099,22.09,23.06,32.74,0,111,13.08,22.92,283.6
"2016-06-23 01:40:30",1746852,10.43,316.1,4.762,0.431,23.85,108.9166,22.11,23.09,32.7,0,111,13.08,22.94,278.1
"2016-06-23 01:41:00",1746853,10.25,319.1,2.323,0.469,23.83,108.9352,22.16,23.1,32.33,0,111,13.08,22.99,281.1
"2016-06-23 01:41:30",1746854,11.46,322.6,2.572,0.996,23.85,108.9428,22.18,23.12,32.43,0,111,13.08,23.01,284.6
"2016-06-23 01:42:00",1746855,12.63,322.5,1.161,0.169,24,108.9436,22.18,23.12,30.56,0,111,13.08,23.01,284.5
"2016-06-23 01:42:30",1746856,12.61,322.2,0.77,0.243,24.01,108.9436,22.18,23.14,30.3,0,111,13.09,23.01,284.2
"2016-06-23 01:43:00",1746857,12.28,325.4,1.545,0.279,23.86,108.9445,22.18,23.15,30.51,0,111,13.09,23.01,287.4
"2016-06-23 01:43:30",1746858,12.14,322.9,1.632,0.169,23.97,108.9521,22.2,23.17,30.35,0,111,13.09,23.03,284.9
"2016-06-23 01:44:00",1746859,12.09,323.9,1.41,0.297,23.83,108.9667,22.24,23.16,30.69,0,111,13.09,23.07,285.9
"2016-06-23 01:44:30",1746860,12.3,323.5,0.978,0.407,23.93,108.9768,22.27,23.19,30.2,0,111,13.09,23.10,285.5
"2016-06-23 01:45:00",1746861,11.47,323.7,0.863,0.205,23.74,108.9774,22.27,23.2,30.62,0,111,13.09,23.10,285.7
"2016-06-23 01:45:30",1746862,11.75,324,1.371,0.14,23.77,108.9774,22.27,23.21,30.58,0,111,13.09,23.10,286.0
"2016-06-23 01:46:00",1746863,11.64,323.5,0.81,0.218,23.6,108.9774,22.27,23.22,31.09,0,111,13.09,23.10,285.5
"2016-06-23 01:46:30",1746864,11.94,319.5,1.77,0.264,23.74,108.9774,22.27,23.24,30.98,0,111,13.09,23.10,281.5
"2016-06-23 01:47:00",1746865,11.27,320.9,0.855,0.288,23.63,108.9774,22.27,23.25,31.29,0,111,13.09,23.10,282.9
"2016-06-23 01:47:30",1746866,11.28,320.1,1.184,0.214,23.75,108.9774,22.27,23.25,31.14,0,111,13.09,23.10,282.1